SCP
0 0 0 0 0 0 0 0 0 0 0 0 0 0 0 0 0 0 0 0 0 0 0 0 0 0 0 0 0 0 0 0 0 0 0 0 -0 -0 0 0 0 -0 -0
0 0 0 0 0 0 0 0 0 0 0 0 0 0 0 0 0 0 0 0 0 0 0 0 0 0 0 0 0 0 0 0 0 0 0 0 -0 0 -0 -0 -0 -0 -0
0 0 0 0 0 0 0 0 0 0 0 0 0 0 0 0 0 0 0 0 0 0 0 0 0 0 0 0 0 0 0 0 0 0 0 0 0 0 -0 -0 -0 -0 -0
0 0 0 0 0 0 0 0 0 0 0 0 0 0 0 0 0 0 0 0 0 0 0 0 0 0 0 0 0 0 0 0 0 0 0 0 0 0 0 -0 -0 -0 -0
0 0 0 0 0 0 0 0 0 0 0 0 0 0 0 0 0 0 0 0 0 0 0 0 0 0 0 0 0 0 0 0 0 0 0 0 0 0 -0 -0 -0 -0 -0
0 0 0 0 0 0 0 0 0 0 0 0 0 0 0 0 0 0 0 0 0 0 0 0 0 0 0 0 0 0 0 0 0 0 0 0 0 0 0 0 0 0 -0
0 0 0 0 0 0 0 0 0 0 0 0 0 0 0 0 0 0 0 0 0 0 0 0 0 0 0 0 0 0 0 0 0 0 0 0 0 0 0 0 0 0 0
0 0 0 0 0 0 0 0 0 0 0 0 0 0 0 0 0 0 0 0 0 0 0 0 0 0 0 0 0 0 0 0 0 0 0 0 0 0 0 0 0 0 0
0 0 0 0 0 0 0 0 0 0 0 0 0 0 0 0 0 0 0 0 0 0 0 0 0 0 0 0 0 0 0 0 0 0 0 0 0 0 0 0 0 0 0
0 0 0 0 0 0 0 0 0 0 0 0 0 0 0 0 0 0 0 0 0 0 0 0 0 0 0 0 0 0 0 0 0 0 0 0 0 0 0 0 0 0 0
0 0 0 0 0 0 0 0 0 0 0 0 0 0 0 0 0 0 0 0 0 0 0 0 0 0 0 0 0 0 0 0 0 0 0 0 0 0 0 0 0 0 0
0 0 0 0 0 0 0 0 0 0 0 0 0 0 0 0 0 0 0 0 0 0 0 0 0 0 0 0 0 0 0 0 0 0 0 0 0 0 0 0 0 0 0
0 0 0 0 0 0 0 0 0 0 0 0 0 0 0 0 0 0 0 0 0 0 0 0 0 0 0 0 0 0 0 0 0 0 0 0 0 0 0 0 0 0 0
0 0 0 0 0 0 0 0 0 0 0 0 0 0 0 0 0 0 0 0 0 0 0 0 0 0 0 0 0 0 0 0 0 0 0 0 0 0 0 0 0 0 0
0 0 0 0 0 0 0 0 0 0 0 0 0 0 0 0 0 0 0 0 0 0 0 0 0 0 0 0 0 0 0 0 0 0 0 0 0 0 0 0 0 0 0
0 0 0 0 0 0 0 0 0 0 0 0 0 0 0 0 0 0 0 0 0 0 0 0 0 0 0 0 0 0 0 0 0 0 0 0 0 0 0 0 0 0 0
0 0 0 0 0 0 0 0 0 0 0 0 0 0 0 0 0 0 0 0 0 0 0 0 0 0 0 0 0 0 0 0 0 0 0 0 0 0 0 0 0 0 0
0 0 0 0 0 0 0 0 0 0 0 0 0 0 0 0 0 0 0 0 0 0 0 0 0 0 0 0 0 0 0 0 0 0 0 0 0 0 0 0 0 0 0
0 0 0 0 0 0 0 0 0 0 0 0 0 0 0 0 0 0 0 0 0 0 0 0 0 0 0 0 0 0 0 0 0 0 0 0 0 0 0 0 0 0 0
0 0 0 0 0 0 0 0 0 0 0 0 0 0 0 0 0 0 0 0 0 0 0 0 0 0 0 0 0 0 0 0 0 0 0 0 0 0 0 0 0 0 0
0 0 0 0 0 0 0 0 0 0 0 0 0 0 0 0 0 0 0 0 0 0 0 0 0 0 0 0 0 0 0 0 0 0 0 0 0 0 0 0 0 0 0
0 0 0 0 0 0 0 0 0 0 0 0 0 0 0 0 0 0 0 0 0 0 0 0 0 0 0 0 0 0 0 0 0 0 0 0 0 0 0 0 0 0 0
0 0 0 0 0 0 0 0 0 0 0 0 0 0 0 0 0 0 0 0 0 0 0 0 0 0 0 0 0 0 0 0 0 0 0 0 0 0 0 0 0 0 0
0 0 0 0 0 0 0 0 0 0 0 0 0 0 0 0 0 0 0 0 0 0 0 0 0 0 0 0 0 0 0 0 0 0 0 0 0 0 0 0 0 0 0
0 0 0 0 0 0 0 0 0 0 0 0 0 0 0 0 0 0 0 0 0 0 0 -0 0 0 -0 -0 -0 0 0 0 0 0 0 0 0 0 0 0 0 0 0
0 0 0 0 0 0 0 0 0 0 0 0 0 0 0 0 0 0 0 0 0 0 -0 -0 0 -0 -0 -0 -0 0 0 0 0 0 0 0 0 0 0 0 0 0 0
Wind_Speed_500mb
39 36 34 32 28 24 20 15 11 6 3 7 14 21 26 28 30 32 33 37 41 44 47 50 53 55 56 58 60 62 63 55 60 104 96 91 77 87 96 92 93 94 94
44 43 40 36 31 25 21 16 13 8 7 14 20 24 28 29 31 34 36 39 42 47 50 53 57 59 62 63 65 66 68 68 60 82 107 99 82 71 79 84 86 86 84
51 47 44 39 33 30 24 20 16 12 14 18 23 24 26 29 33 36 39 43 46 49 52 57 61 64 68 68 68 73 74 73 71 68 102 89 80 72 77 78 78 80 75
54 51 50 45 38 33 28 23 21 21 23 25 26 27 29 33 37 41 44 46 47 49 55 60 63 65 68 72 75 74 72 74 70 68 82 92 77 71 60 66 77 70 77
59 58 57 49 43 38 33 29 30 30 30 32 33 32 32 34 39 43 46 49 50 53 57 61 63 67 71 73 72 73 72 71 67 71 78 79 73 77 69 68 72 76 75
64 63 59 52 49 44 38 37 35 36 38 40 39 37 36 37 39 44 50 52 54 57 61 63 65 69 70 71 70 62 52 59 67 71 77 79 84 80 76 71 69 74 77
66 62 59 57 52 48 45 43 43 45 47 47 45 43 42 41 42 47 52 54 57 59 62 64 67 67 68 67 66 60 58 56 55 64 75 78 82 82 81 80 77 78 80
63 60 60 57 55 52 51 49 51 52 53 52 52 50 48 45 47 50 56 58 58 61 62 64 66 67 65 61 63 70 75 75 73 73 78 86 89 88 87 90 94 95 92
59 61 58 57 58 57 54 53 54 55 57 56 55 54 52 50 53 57 59 59 59 61 63 63 66 68 64 52 61 72 78 79 68 57 55 65 74 77 75 80 83 81 82
56 54 51 53 55 54 52 52 52 54 55 57 57 57 56 56 56 57 58 58 59 60 60 61 62 53 47 52 60 71 82 84 80 76 79 80 76 77 69 62 69 77 80
41 44 44 45 48 50 52 54 53 51 54 57 58 59 61 60 60 58 58 58 56 56 58 62 58 46 46 55 59 64 67 65 73 75 75 71 65 64 57 46 51 58 68
40 41 43 46 51 56 58 58 57 56 57 58 61 63 63 62 60 59 59 58 55 54 56 55 52 44 54 57 58 59 55 56 63 63 63 64 62 59 56 56 57 59 67
42 45 49 53 57 60 62 62 62 59 60 62 63 65 64 64 62 59 57 56 52 48 50 46 47 60 58 56 52 51 54 54 55 58 60 61 57 60 59 57 55 55 57
47 53 57 60 62 63 64 64 63 62 62 62 63 65 65 64 62 58 56 47 45 41 44 54 59 56 51 51 50 47 48 48 51 54 57 61 61 57 57 54 54 56 61
54 57 60 61 62 63 63 63 63 63 62 63 65 65 66 67 62 58 58 46 44 42 52 64 61 50 49 48 47 46 46 46 50 54 58 59 57 57 57 55 51 52 54
59 59 59 58 59 58 60 62 64 66 66 67 68 72 70 70 62 48 45 41 39 55 62 60 55 48 46 46 47 47 46 46 49 54 57 58 56 54 59 59 55 52 54
58 58 55 53 54 55 57 60 64 65 69 70 72 73 72 69 54 48 47 42 44 62 62 55 50 47 44 44 45 46 48 46 48 52 56 58 53 57 65 66 61 57 59
51 50 47 49 50 53 56 59 62 66 71 73 70 68 67 65 62 53 46 44 57 63 57 50 47 46 44 44 45 46 47 46 46 49 52 56 52 55 66 63 60 57 59
42 43 44 47 51 55 58 62 65 68 71 76 76 73 68 66 67 60 45 55 67 59 51 50 45 45 45 45 45 46 46 45 44 47 49 53 51 54 61 58 57 56 56
37 40 43 47 51 56 58 60 62 65 68 70 72 73 64 66 65 65 61 62 61 55 50 51 47 45 45 45 46 46 46 42 40 42 46 49 51 53 58 58 56 55 55
36 40 42 46 49 52 55 57 60 63 66 68 70 68 63 58 60 59 58 63 57 52 50 50 48 46 46 45 46 45 43 40 37 39 43 46 48 53 55 53 53 53 52
35 38 40 41 43 45 48 51 53 57 61 64 67 64 56 51 56 55 59 60 52 47 47 48 47 46 46 45 44 42 40 37 32 35 38 43 43 48 49 50 51 51 51
30 32 33 35 37 39 42 45 48 50 53 56 57 59 57 56 54 54 57 56 49 43 45 47 47 45 44 43 41 38 37 33 30 31 36 40 38 42 43 46 48 49 50
28 30 31 32 35 38 41 44 46 47 49 49 48 49 49 46 45 45 46 47 42 42 45 46 46 44 41 41 39 36 35 31 29 27 30 36 34 34 36 39 41 43 45
26 27 30 33 35 38 40 42 44 44 45 43 43 43 43 41 42 42 41 41 42 44 44 44 43 42 41 39 37 35 33 29 29 26 26 30 29 28 28 30 35 40 42
26 29 31 33 34 36 38 40 41 42 42 42 40 40 41 40 40 40 40 41 42 42 41 40 40 41 41 39 36 36 34 31 28 27 28 25 26 24 26 29 32 36 39
Wind_Direction_500mb
197 198 197 195 195 193 194 196 200 208 284 330 342 339 335 330 325 324 325 327 328 327 326 326 324 324 322 319 318 314 309 301 290 303 301 303 299 300 300 299 298 298 295
204 203 204 205 200 202 204 206 217 240 292 328 331 327 325 323 320 320 323 324 324 325 325 326 324 323 321 320 316 312 307 304 295 293 303 300 301 297 297 298 302 300 299
210 209 210 209 210 212 214 220 237 261 294 304 313 318 318 316 316 317 319 321 322 324 325 324 323 321 319 317 313 310 307 304 302 296 299 301 300 302 301 300 297 295 300
214 214 217 217 217 220 224 233 250 266 279 289 298 306 309 313 317 316 314 314 316 318 319 319 319 318 316 314 311 310 308 305 302 297 297 300 304 307 305 303 300 297 292
219 218 221 219 221 226 233 242 253 263 273 280 286 292 298 308 315 313 310 309 310 313 314 315 316 316 315 313 312 309 306 305 305 305 302 302 303 306 308 307 300 302 301
223 223 224 223 226 232 239 248 257 265 272 277 278 283 290 300 309 311 308 306 307 310 313 315 316 315 314 312 309 305 302 304 302 299 301 302 303 302 304 302 300 302 300
227 227 227 229 231 237 244 253 263 269 272 275 275 279 281 290 300 307 306 304 305 309 312 314 315 314 313 313 310 308 308 309 297 297 293 297 302 303 302 299 298 297 295
230 230 231 233 235 240 248 257 264 270 274 275 274 276 281 290 299 305 304 302 305 308 311 313 314 315 316 314 316 318 316 313 312 306 299 299 299 302 298 298 297 296 296
232 232 233 235 237 244 253 261 267 272 274 274 273 276 281 288 298 302 300 298 302 305 309 313 315 315 318 317 312 308 310 310 311 298 293 292 291 291 290 290 289 289 291
229 230 233 236 240 250 258 263 267 271 273 273 275 278 282 289 294 295 292 293 298 302 305 310 311 311 310 312 308 305 302 300 305 304 296 293 294 296 297 289 286 284 287
228 231 236 241 246 253 256 257 262 268 273 273 275 278 280 285 290 290 288 291 295 298 303 307 309 307 309 306 309 304 307 311 301 301 303 304 304 303 304 297 289 287 285
231 236 240 247 254 256 256 258 261 266 270 273 274 276 280 285 287 286 285 288 292 293 298 301 305 305 306 314 316 315 313 313 314 314 313 314 314 312 307 302 294 284 277
237 243 249 255 257 259 258 259 259 263 268 271 274 278 282 285 285 283 282 286 287 289 293 299 288 303 311 315 318 320 322 326 327 323 320 318 315 313 312 311 308 304 300
248 253 257 259 259 259 259 259 259 264 268 270 272 276 281 282 282 281 280 280 283 288 297 290 299 304 310 314 318 323 328 332 334 333 329 324 320 319 317 318 314 315 312
256 260 260 261 261 260 259 259 262 265 267 271 274 277 279 280 280 280 279 280 286 292 282 287 298 301 308 314 318 325 331 334 337 337 334 333 331 326 323 322 316 313 307
259 261 261 260 260 258 259 261 265 269 272 274 275 277 279 277 276 271 267 272 276 272 276 286 292 297 304 311 316 323 330 334 335 336 338 337 332 331 331 329 327 319 312
257 257 256 255 256 259 262 266 271 274 276 274 276 277 275 274 269 268 261 268 267 267 275 283 285 292 299 306 313 319 324 329 332 334 337 338 335 340 334 330 330 325 320
252 254 255 257 258 262 265 269 272 275 277 278 279 277 274 273 270 264 266 261 260 265 274 277 282 288 295 302 307 313 317 321 327 330 334 339 339 338 330 332 331 328 326
250 253 256 261 266 271 275 277 279 280 281 282 281 279 279 274 271 267 255 254 258 266 271 274 279 284 291 297 303 307 311 318 323 327 333 338 340 340 336 337 335 334 329
260 266 272 277 280 282 283 283 284 284 284 283 282 283 280 275 269 267 264 261 261 264 267 272 277 282 288 294 299 303 306 314 318 324 329 336 341 344 341 340 340 336 333
277 278 278 281 284 286 287 287 287 286 285 284 283 281 280 275 269 266 264 263 263 264 266 270 275 281 288 293 296 299 303 310 314 320 327 335 339 347 344 345 343 342 336
280 284 287 291 293 295 296 296 295 294 291 289 287 285 279 266 260 263 262 264 265 262 263 268 274 280 286 290 293 296 298 304 309 315 325 332 340 347 345 348 350 349 350
291 296 301 303 306 309 312 312 310 306 301 296 292 289 284 278 271 265 264 265 265 262 265 269 275 279 282 284 288 291 294 301 304 312 322 330 341 343 345 350 353 355 357
306 308 311 312 312 313 314 314 312 309 306 301 294 290 287 283 277 270 266 266 266 265 268 272 275 278 278 280 284 286 288 297 297 302 315 326 337 337 343 350 356 357 359
309 309 308 308 310 310 310 310 310 309 306 303 299 294 289 283 279 276 274 273 271 271 273 274 276 277 277 278 281 281 283 287 294 285 300 322 327 327 339 350 357 0 2
306 306 307 309 310 310 310 309 309 307 306 304 300 295 292 287 283 281 278 277 276 275 275 275 276 278 278 279 278 276 276 276 281 273 273 296 307 315 326 337 343 350 356
Wind_Speed_850mb
39 36 34 32 28 24 20 15 11 6 3 7 14 21 26 28 30 32 33 37 41 44 47 50 53 55 56 58 60 62 63 55 60 104 96 91 77 87 96 92 93 94 94
44 43 40 36 31 25 21 16 13 8 7 14 20 24 28 29 31 34 36 39 42 47 50 53 57 59 62 63 65 66 68 68 60 82 107 99 82 71 79 84 86 86 84
51 47 44 39 33 30 24 20 16 12 14 18 23 24 26 29 33 36 39 43 46 49 52 57 61 64 68 68 68 73 74 73 71 68 102 89 80 72 77 78 78 80 75
54 51 50 45 38 33 28 23 21 21 23 25 26 27 29 33 37 41 44 46 47 49 55 60 63 65 68 72 75 74 72 74 70 68 82 92 77 71 60 66 77 70 77
59 58 57 49 43 38 33 29 30 30 30 32 33 32 32 34 39 43 46 49 50 53 57 61 63 67 71 73 72 73 72 71 67 71 78 79 73 77 69 68 72 76 75
64 63 59 52 49 44 38 37 35 36 38 40 39 37 36 37 39 44 50 52 54 57 61 63 65 69 70 71 70 62 52 59 67 71 77 79 84 80 76 71 69 74 77
66 62 59 57 52 48 45 43 43 45 47 47 45 43 42 41 42 47 52 54 57 59 62 64 67 67 68 67 66 60 58 56 55 64 75 78 82 82 81 80 77 78 80
63 60 60 57 55 52 51 49 51 52 53 52 52 50 48 45 47 50 56 58 58 61 62 64 66 67 65 61 63 70 75 75 73 73 78 86 89 88 87 90 94 95 92
59 61 58 57 58 57 54 53 54 55 57 56 55 54 52 50 53 57 59 59 59 61 63 63 66 68 64 52 61 72 78 79 68 57 55 65 74 77 75 80 83 81 82
56 54 51 53 55 54 52 52 52 54 55 57 57 57 56 56 56 57 58 58 59 60 60 61 62 53 47 52 60 71 82 84 80 76 79 80 76 77 69 62 69 77 80
41 44 44 45 48 50 52 54 53 51 54 57 58 59 61 60 60 58 58 58 56 56 58 62 58 46 46 55 59 64 67 65 73 75 75 71 65 64 57 46 51 58 68
40 41 43 46 51 56 58 58 57 56 57 58 61 63 63 62 60 59 59 58 55 54 56 55 52 44 54 57 58 59 55 56 63 63 63 64 62 59 56 56 57 59 67
42 45 49 53 57 60 62 62 62 59 60 62 63 65 64 64 62 59 57 56 52 48 50 46 47 60 58 56 52 51 54 54 55 58 60 61 57 60 59 57 55 55 57
47 53 57 60 62 63 64 64 63 62 62 62 63 65 65 64 62 58 56 47 45 41 44 54 59 56 51 51 50 47 48 48 51 54 57 61 61 57 57 54 54 56 61
54 57 60 61 62 63 63 63 63 63 62 63 65 65 66 67 62 58 58 46 44 42 52 64 61 50 49 48 47 46 46 46 50 54 58 59 57 57 57 55 51 52 54
59 59 59 58 59 58 60 62 64 66 66 67 68 72 70 70 62 48 45 41 39 55 62 60 55 48 46 46 47 47 46 46 49 54 57 58 56 54 59 59 55 52 54
58 58 55 53 54 55 57 60 64 65 69 70 72 73 72 69 54 48 47 42 44 62 62 55 50 47 44 44 45 46 48 46 48 52 56 58 53 57 65 66 61 57 59
51 50 47 49 50 53 56 59 62 66 71 73 70 68 67 65 62 53 46 44 57 63 57 50 47 46 44 44 45 46 47 46 46 49 52 56 52 55 66 63 60 57 59
42 43 44 47 51 55 58 62 65 68 71 76 76 73 68 66 67 60 45 55 67 59 51 50 45 45 45 45 45 46 46 45 44 47 49 53 51 54 61 58 57 56 56
37 40 43 47 51 56 58 60 62 65 68 70 72 73 64 66 65 65 61 62 61 55 50 51 47 45 45 45 46 46 46 42 40 42 46 49 51 53 58 58 56 55 55
36 40 42 46 49 52 55 57 60 63 66 68 70 68 63 58 60 59 58 63 57 52 50 50 48 46 46 45 46 45 43 40 37 39 43 46 48 53 55 53 53 53 52
35 38 40 41 43 45 48 51 53 57 61 64 67 64 56 51 56 55 59 60 52 47 47 48 47 46 46 45 44 42 40 37 32 35 38 43 43 48 49 50 51 51 51
30 32 33 35 37 39 42 45 48 50 53 56 57 59 57 56 54 54 57 56 49 43 45 47 47 45 44 43 41 38 37 33 30 31 36 40 38 42 43 46 48 49 50
28 30 31 32 35 38 41 44 46 47 49 49 48 49 49 46 45 45 46 47 42 42 45 46 46 44 41 41 39 36 35 31 29 27 30 36 34 34 36 39 41 43 45
26 27 30 33 35 38 40 42 44 44 45 43 43 43 43 41 42 42 41 41 42 44 44 44 43 42 41 39 37 35 33 29 29 26 26 30 29 28 28 30 35 40 42
26 29 31 33 34 36 38 40 41 42 42 42 40 40 41 40 40 40 40 41 42 42 41 40 40 41 41 39 36 36 34 31 28 27 28 25 26 24 26 29 32 36 39
Wind_Direction_850mb
197 198 197 195 195 193 194 196 200 208 284 330 342 339 335 330 325 324 325 327 328 327 326 326 324 324 322 319 318 314 309 301 290 303 301 303 299 300 300 299 298 298 295
204 203 204 205 200 202 204 206 217 240 292 328 331 327 325 323 320 320 323 324 324 325 325 326 324 323 321 320 316 312 307 304 295 293 303 300 301 297 297 298 302 300 299
210 209 210 209 210 212 214 220 237 261 294 304 313 318 318 316 316 317 319 321 322 324 325 324 323 321 319 317 313 310 307 304 302 296 299 301 300 302 301 300 297 295 300
214 214 217 217 217 220 224 233 250 266 279 289 298 306 309 313 317 316 314 314 316 318 319 319 319 318 316 314 311 310 308 305 302 297 297 300 304 307 305 303 300 297 292
219 218 221 219 221 226 233 242 253 263 273 280 286 292 298 308 315 313 310 309 310 313 314 315 316 316 315 313 312 309 306 305 305 305 302 302 303 306 308 307 300 302 301
223 223 224 223 226 232 239 248 257 265 272 277 278 283 290 300 309 311 308 306 307 310 313 315 316 315 314 312 309 305 302 304 302 299 301 302 303 302 304 302 300 302 300
227 227 227 229 231 237 244 253 263 269 272 275 275 279 281 290 300 307 306 304 305 309 312 314 315 314 313 313 310 308 308 309 297 297 293 297 302 303 302 299 298 297 295
230 230 231 233 235 240 248 257 264 270 274 275 274 276 281 290 299 305 304 302 305 308 311 313 314 315 316 314 316 318 316 313 312 306 299 299 299 302 298 298 297 296 296
232 232 233 235 237 244 253 261 267 272 274 274 273 276 281 288 298 302 300 298 302 305 309 313 315 315 318 317 312 308 310 310 311 298 293 292 291 291 290 290 289 289 291
229 230 233 236 240 250 258 263 267 271 273 273 275 278 282 289 294 295 292 293 298 302 305 310 311 311 310 312 308 305 302 300 305 304 296 293 294 296 297 289 286 284 287
228 231 236 241 246 253 256 257 262 268 273 273 275 278 280 285 290 290 288 291 295 298 303 307 309 307 309 306 309 304 307 311 301 301 303 304 304 303 304 297 289 287 285
231 236 240 247 254 256 256 258 261 266 270 273 274 276 280 285 287 286 285 288 292 293 298 301 305 305 306 314 316 315 313 313 314 314 313 314 314 312 307 302 294 284 277
237 243 249 255 257 259 258 259 259 263 268 271 274 278 282 285 285 283 282 286 287 289 293 299 288 303 311 315 318 320 322 326 327 323 320 318 315 313 312 311 308 304 300
248 253 257 259 259 259 259 259 259 264 268 270 272 276 281 282 282 281 280 280 283 288 297 290 299 304 310 314 318 323 328 332 334 333 329 324 320 319 317 318 314 315 312
256 260 260 261 261 260 259 259 262 265 267 271 274 277 279 280 280 280 279 280 286 292 282 287 298 301 308 314 318 325 331 334 337 337 334 333 331 326 323 322 316 313 307
259 261 261 260 260 258 259 261 265 269 272 274 275 277 279 277 276 271 267 272 276 272 276 286 292 297 304 311 316 323 330 334 335 336 338 337 332 331 331 329 327 319 312
257 257 256 255 256 259 262 266 271 274 276 274 276 277 275 274 269 268 261 268 267 267 275 283 285 292 299 306 313 319 324 329 332 334 337 338 335 340 334 330 330 325 320
252 254 255 257 258 262 265 269 272 275 277 278 279 277 274 273 270 264 266 261 260 265 274 277 282 288 295 302 307 313 317 321 327 330 334 339 339 338 330 332 331 328 326
250 253 256 261 266 271 275 277 279 280 281 282 281 279 279 274 271 267 255 254 258 266 271 274 279 284 291 297 303 307 311 318 323 327 333 338 340 340 336 337 335 334 329
260 266 272 277 280 282 283 283 284 284 284 283 282 283 280 275 269 267 264 261 261 264 267 272 277 282 288 294 299 303 306 314 318 324 329 336 341 344 341 340 340 336 333
277 278 278 281 284 286 287 287 287 286 285 284 283 281 280 275 269 266 264 263 263 264 266 270 275 281 288 293 296 299 303 310 314 320 327 335 339 347 344 345 343 342 336
280 284 287 291 293 295 296 296 295 294 291 289 287 285 279 266 260 263 262 264 265 262 263 268 274 280 286 290 293 296 298 304 309 315 325 332 340 347 345 348 350 349 350
291 296 301 303 306 309 312 312 310 306 301 296 292 289 284 278 271 265 264 265 265 262 265 269 275 279 282 284 288 291 294 301 304 312 322 330 341 343 345 350 353 355 357
306 308 311 312 312 313 314 314 312 309 306 301 294 290 287 283 277 270 266 266 266 265 268 272 275 278 278 280 284 286 288 297 297 302 315 326 337 337 343 350 356 357 359
309 309 308 308 310 310 310 310 310 309 306 303 299 294 289 283 279 276 274 273 271 271 273 274 276 277 277 278 281 281 283 287 294 285 300 322 327 327 339 350 357 0 2
306 306 307 309 310 310 310 309 309 307 306 304 300 295 292 287 283 281 278 277 276 275 275 275 276 278 278 279 278 276 276 276 281 273 273 296 307 315 326 337 343 350 356